TimeEST,TemperatureF,Dew PointF,Humidity,Sea Level PressureIn,VisibilityMPH,Wind Direction,Wind SpeedMPH,Gust SpeedMPH,PrecipitationIn,Events,Conditions,WindDirDegrees,DateUTC
12:15 AM,28.9,16.5,60,30.30,10.0,Calm,Calm,-,N/A,,Clear,0,2014-03-01 05:15:00
12:35 AM,29.8,16.3,57,30.30,10.0,North,3.5,-,N/A,,Clear,10,2014-03-01 05:35:00
12:55 AM,29.8,16.7,58,30.31,10.0,North,3.5,-,N/A,,Clear,360,2014-03-01 05:55:00
1:15 AM,30.0,16.7,58,30.31,10.0,North,3.5,-,N/A,,Scattered Clouds,10,2014-03-01 06:15:00
1:35 AM,30.0,18.3,62,30.31,10.0,North,4.6,-,N/A,,Overcast,10,2014-03-01 06:35:00
1:55 AM,30.0,19.0,64,30.30,10.0,North,4.6,-,N/A,,Overcast,10,2014-03-01 06:55:00
2:15 AM,30.4,18.3,61,30.30,10.0,NNE,3.5,-,N/A,,Overcast,20,2014-03-01 07:15:00
2:35 AM,30.9,18.5,60,30.30,10.0,Calm,Calm,-,N/A,,Mostly Cloudy,0,2014-03-01 07:35:00
2:55 AM,31.1,18.3,59,30.29,10.0,Calm,Calm,-,N/A,,Overcast,0,2014-03-01 07:55:00
3:15 AM,31.1,18.1,59,30.29,10.0,Calm,Calm,-,N/A,,Overcast,0,2014-03-01 08:15:00
3:30 AM,31.1,17.8,58,30.29,10.0,Calm,Calm,-,N/A,,Overcast,0,2014-03-01 08:30:00
3:55 AM,31.1,17.1,56,30.29,10.0,NNE,3.5,-,N/A,,Mostly Cloudy,20,2014-03-01 08:55:00
4:15 AM,30.7,16.5,56,30.29,10.0,NNE,3.5,-,N/A,,Scattered Clouds,20,2014-03-01 09:15:00
4:35 AM,29.7,17.8,61,30.29,10.0,Calm,Calm,-,N/A,,Mostly Cloudy,0,2014-03-01 09:35:00
4:55 AM,30.7,18.1,60,30.30,10.0,Calm,Calm,-,N/A,,Mostly Cloudy,0,2014-03-01 09:55:00
5:15 AM,31.6,16.3,53,30.30,10.0,Calm,Calm,-,N/A,,Overcast,0,2014-03-01 10:15:00
5:35 AM,31.1,16.7,55,30.30,10.0,Calm,Calm,-,N/A,,Overcast,0,2014-03-01 10:35:00
5:55 AM,31.3,16.7,55,30.32,10.0,Calm,Calm,-,N/A,,Overcast,0,2014-03-01 10:55:00
6:15 AM,32.0,17.4,55,30.32,10.0,Calm,Calm,-,N/A,,Overcast,0,2014-03-01 11:15:00
6:35 AM,32.0,17.2,55,30.33,10.0,Calm,Calm,-,N/A,,Overcast,0,2014-03-01 11:35:00
6:55 AM,32.0,17.1,54,30.33,10.0,Calm,Calm,-,N/A,,Overcast,0,2014-03-01 11:55:00
7:15 AM,32.0,17.6,55,30.34,10.0,Calm,Calm,-,N/A,,Overcast,0,2014-03-01 12:15:00
7:35 AM,32.2,16.7,53,30.34,10.0,Calm,Calm,-,N/A,,Overcast,0,2014-03-01 12:35:00
7:55 AM,32.7,16.7,52,30.33,10.0,Calm,Calm,-,N/A,,Overcast,0,2014-03-01 12:55:00
8:10 AM,32.9,16.5,51,30.34,10.0,Calm,Calm,-,N/A,,Overcast,0,2014-03-01 13:10:00
8:35 AM,33.8,16.9,50,30.35,10.0,Calm,Calm,-,N/A,,Overcast,0,2014-03-01 13:35:00
8:55 AM,34.7,16.7,48,30.35,10.0,Calm,Calm,-,N/A,,Overcast,0,2014-03-01 13:55:00
9:15 AM,35.6,16.3,46,30.36,10.0,Calm,Calm,-,N/A,,Overcast,0,2014-03-01 14:15:00
9:35 AM,36.1,16.3,45,30.36,10.0,Calm,Calm,-,N/A,,Overcast,0,2014-03-01 14:35:00
9:55 AM,36.9,16.0,43,30.36,10.0,Calm,Calm,-,N/A,,Overcast,0,2014-03-01 14:55:00
10:15 AM,37.6,16.3,42,30.36,10.0,Calm,Calm,-,N/A,,Overcast,0,2014-03-01 15:15:00
10:35 AM,38.7,16.3,40,30.36,10.0,Calm,Calm,-,N/A,,Overcast,0,2014-03-01 15:35:00
10:55 AM,39.4,16.3,39,30.36,10.0,Calm,Calm,-,N/A,,Overcast,0,2014-03-01 15:55:00
11:15 AM,40.1,16.3,38,30.36,10.0,Calm,Calm,-,N/A,,Overcast,0,2014-03-01 16:15:00
11:35 AM,41.9,16.9,36,30.35,10.0,Calm,Calm,-,N/A,,Overcast,0,2014-03-01 16:35:00
11:55 AM,43.3,17.6,36,30.35,10.0,Calm,Calm,-,N/A,,Overcast,0,2014-03-01 16:55:00
12:15 PM,45.0,19.2,36,30.34,10.0,SSW,3.5,-,N/A,,Overcast,210,2014-03-01 17:15:00
12:35 PM,45.9,18.5,34,30.32,10.0,Calm,Calm,-,N/A,,Overcast,0,2014-03-01 17:35:00
12:55 PM,47.1,20.3,35,30.31,10.0,South,6.9,-,N/A,,Overcast,170,2014-03-01 17:55:00
1:15 PM,49.3,20.8,33,30.30,10.0,Calm,Calm,-,N/A,,Mostly Cloudy,0,2014-03-01 18:15:00
1:35 PM,50.2,22.5,34,30.28,10.0,SW,4.6,-,N/A,,Clear,230,2014-03-01 18:35:00
1:55 PM,51.4,23.2,33,30.27,10.0,SW,6.9,-,N/A,,Clear,230,2014-03-01 18:55:00
2:15 PM,52.5,23.5,32,30.26,10.0,SW,8.1,-,N/A,,Clear,230,2014-03-01 19:15:00
2:35 PM,53.4,23.0,31,30.24,10.0,WSW,3.5,-,N/A,,Clear,240,2014-03-01 19:35:00
2:55 PM,54.7,22.8,29,30.23,10.0,East,3.5,-,N/A,,Clear,100,2014-03-01 19:55:00
3:15 PM,55.0,23.2,29,30.22,10.0,South,5.8,-,N/A,,Clear,190,2014-03-01 20:15:00
3:35 PM,55.6,23.7,29,30.22,10.0,SE,4.6,-,N/A,,Clear,140,2014-03-01 20:35:00
3:55 PM,56.1,23.7,29,30.22,10.0,Calm,Calm,-,N/A,,Clear,0,2014-03-01 20:55:00
4:15 PM,56.8,24.3,28,30.22,10.0,SE,4.6,-,N/A,,Clear,130,2014-03-01 21:15:00
4:35 PM,56.8,25.7,30,30.21,10.0,East,4.6,-,N/A,,Clear,90,2014-03-01 21:35:00
4:55 PM,57.2,26.6,31,30.21,10.0,SE,4.6,-,N/A,,Clear,130,2014-03-01 21:55:00
5:15 PM,56.3,27.1,33,30.21,10.0,SE,4.6,-,N/A,,Clear,130,2014-03-01 22:15:00
5:35 PM,55.4,28.6,36,30.22,10.0,SE,3.5,-,N/A,,Clear,140,2014-03-01 22:35:00
5:55 PM,54.3,29.5,39,30.22,10.0,SE,3.5,-,N/A,,Clear,130,2014-03-01 22:55:00
6:15 PM,52.0,30.6,44,30.23,10.0,ESE,3.5,-,N/A,,Clear,120,2014-03-01 23:15:00
6:35 PM,50.2,31.1,48,30.24,10.0,ESE,4.6,-,N/A,,Clear,120,2014-03-01 23:35:00
6:55 PM,48.2,31.6,53,30.24,10.0,SE,3.5,-,N/A,,Clear,130,2014-03-01 23:55:00
7:15 PM,44.2,32.0,62,30.25,10.0,Calm,Calm,-,N/A,,Clear,0,2014-03-02 00:15:00
7:35 PM,40.3,31.5,71,30.25,10.0,Calm,Calm,-,N/A,,Clear,0,2014-03-02 00:35:00
7:55 PM,39.7,31.8,73,30.25,10.0,Calm,Calm,-,N/A,,Clear,0,2014-03-02 00:55:00
8:15 PM,39.9,31.8,73,30.26,10.0,Calm,Calm,-,N/A,,Clear,0,2014-03-02 01:15:00
8:35 PM,37.2,30.9,78,30.26,10.0,Calm,Calm,-,N/A,,Clear,0,2014-03-02 01:35:00
8:55 PM,37.6,31.3,78,30.26,10.0,Calm,Calm,-,N/A,,Clear,0,2014-03-02 01:55:00
9:15 PM,36.1,30.9,81,30.27,10.0,Calm,Calm,-,N/A,,Clear,0,2014-03-02 02:15:00
9:35 PM,36.1,31.1,82,30.28,10.0,NW,3.5,-,N/A,,Clear,320,2014-03-02 02:35:00
9:55 PM,36.3,31.1,81,30.28,10.0,Calm,Calm,-,N/A,,Clear,0,2014-03-02 02:55:00
10:15 PM,34.9,30.7,85,30.28,10.0,Calm,Calm,-,N/A,,Clear,0,2014-03-02 03:15:00
10:35 PM,32.9,29.5,87,30.27,10.0,Calm,Calm,-,N/A,,Clear,0,2014-03-02 03:35:00
10:55 PM,32.5,29.5,88,30.26,10.0,Calm,Calm,-,N/A,,Clear,0,2014-03-02 03:55:00
11:15 PM,34.0,31.6,91,30.26,10.0,Calm,Calm,-,N/A,,Clear,0,2014-03-02 04:15:00
11:35 PM,33.3,29.8,87,30.27,10.0,NNW,3.5,-,N/A,,Clear,340,2014-03-02 04:35:00
11:55 PM,31.1,28.4,90,30.27,10.0,Calm,Calm,-,N/A,,Clear,0,2014-03-02 04:55:00